• In Kazakhstan
  • List of Countries
  • For 7 days
  • Water Temperature
  • Weather Map
  • News
  • Weather Widgets
  • user-avatar
    Login

    Hourly Weather Ganja

    Today, 22 September, Sunday

    Time Temperature Precipitation Wind Pressure Humidity
    00:00 +15°C° 0 mm 6 mps 724 mmHg 49%
    01:00 +15°C° 0.1 mm 6 mps 724 mmHg 51%
    02:00 +15°C° 0.1 mm 6 mps 725 mmHg 52%
    03:00 +15°C° 0 mm 6 mps 726 mmHg 49%
    04:00 +14°C° 0.1 mm 6 mps 726 mmHg 52%
    05:00 +14°C° 0.1 mm 5 mps 727 mmHg 54%
    06:00 +13°C° 0.1 mm 4 mps 727 mmHg 57%
    07:00 +14°C° 0 mm 5 mps 728 mmHg 53%
    08:00 +15°C° 0 mm 5 mps 728 mmHg 49%
    09:00 +16°C° 0 mm 5 mps 729 mmHg 45%
    10:00 +17°C° 0 mm 5 mps 729 mmHg 42%
    11:00 +19°C° 0 mm 4 mps 729 mmHg 39%
    12:00 +20°C° 0 mm 4 mps 729 mmHg 36%
    13:00 +20°C° 0 mm 4 mps 729 mmHg 35%
    14:00 +20°C° 0 mm 3 mps 728 mmHg 33%
    15:00 +21°C° 0 mm 3 mps 728 mmHg 32%
    16:00 +20°C° 0 mm 2 mps 728 mmHg 33%
    17:00 +19°C° 0 mm 2 mps 728 mmHg 34%
    18:00 +19°C° 0 mm 1 mps 728 mmHg 35%
    19:00 +18°C° 0 mm 1 mps 728 mmHg 37%
    20:00 +18°C° 0 mm 1 mps 729 mmHg 38%
    21:00 +16°C° 0 mm 1 mps 729 mmHg 40%
    22:00 +15°C° 0 mm 1 mps 729 mmHg 46%
    23:00 +15°C° 0 mm 1 mps 729 mmHg 52%

    Tomorrow, 23 September, Monday

    Time Temperature Precipitation Wind Pressure Humidity
    00:00 +14°C° 0 mm 1 mps 728 mmHg 58%
    01:00 +13°C° 0 mm 1 mps 728 mmHg 60%
    02:00 +13°C° 0 mm 1 mps 728 mmHg 62%
    03:00 +13°C° 0 mm 1 mps 728 mmHg 64%
    04:00 +12°C° 0 mm 1 mps 728 mmHg 63%
    05:00 +12°C° 0 mm 1 mps 727 mmHg 62%
    06:00 +12°C° 0 mm 1 mps 727 mmHg 61%
    07:00 +14°C° 0 mm 1 mps 727 mmHg 55%
    08:00 +15°C° 0 mm 2 mps 727 mmHg 49%
    09:00 +17°C° 0 mm 2 mps 727 mmHg 43%
    10:00 +18°C° 0 mm 2 mps 726 mmHg 41%
    11:00 +19°C° 0 mm 2 mps 726 mmHg 39%
    12:00 +20°C° 0 mm 2 mps 726 mmHg 37%
    13:00 +21°C° 0 mm 2 mps 725 mmHg 36%
    14:00 +23°C° 0 mm 2 mps 725 mmHg 35%
    15:00 +23°C° 0 mm 2 mps 724 mmHg 34%
    16:00 +22°C° 0 mm 1 mps 724 mmHg 37%
    17:00 +21°C° 0 mm 1 mps 724 mmHg 39%
    18:00 +18°C° 0 mm 0 mps 724 mmHg 42%
    19:00 +17°C° 0 mm 0 mps 725 mmHg 44%
    20:00 +19°C° 0 mm 1 mps 725 mmHg 45%
    21:00 +19°C° 0 mm 1 mps 725 mmHg 47%
    22:00 +18°C° 0 mm 1 mps 725 mmHg 49%
    23:00 +18°C° 0 mm 1 mps 725 mmHg 51%

    Day after tomorrow, 24 September, Tuesday

    Time Temperature Precipitation Wind Pressure Humidity
    00:00 +16°C° 0 mm 1 mps 725 mmHg 52%
    01:00 +16°C° 0 mm 1 mps 725 mmHg 56%
    02:00 +15°C° 0 mm 1 mps 725 mmHg 59%
    03:00 +15°C° 0 mm 1 mps 725 mmHg 63%
    04:00 +15°C° 0 mm 1 mps 725 mmHg 66%
    05:00 +14°C° 0 mm 1 mps 725 mmHg 68%
    06:00 +13°C° 0 mm 0 mps 726 mmHg 71%
    07:00 +16°C° 0 mm 1 mps 726 mmHg 65%
    08:00 +18°C° 0 mm 1 mps 726 mmHg 59%
    09:00 +20°C° 0 mm 1 mps 726 mmHg 53%
    10:00 +20°C° 0 mm 2 mps 726 mmHg 50%
    11:00 +21°C° 0 mm 2 mps 725 mmHg 48%
    12:00 +23°C° 0 mm 2 mps 725 mmHg 46%
    13:00 +24°C° 0 mm 2 mps 725 mmHg 46%
    14:00 +24°C° 0 mm 2 mps 725 mmHg 46%
    15:00 +25°C° 0 mm 3 mps 725 mmHg 46%
    16:00 +24°C° 0 mm 2 mps 724 mmHg 52%
    17:00 +23°C° 0 mm 2 mps 724 mmHg 57%
    18:00 +21°C° 0 mm 2 mps 724 mmHg 63%
    19:00 +20°C° 0 mm 2 mps 725 mmHg 65%
    20:00 +21°C° 0 mm 1 mps 725 mmHg 67%
    21:00 +20°C° 0 mm 1 mps 725 mmHg 69%
    22:00 +20°C° 0 mm 1 mps 725 mmHg 71%
    23:00 +19°C° 0 mm 1 mps 725 mmHg 74%

    25 September, Wednesday

    Time Temperature Precipitation Wind Pressure Humidity
    00:00 +18°C° 0 mm 2 mps 725 mmHg 76%
    01:00 +18°C° 0 mm 1 mps 724 mmHg 78%
    02:00 +18°C° 0 mm 1 mps 724 mmHg 80%
    03:00 +16°C° 0 mm 1 mps 724 mmHg 82%
    04:00 +16°C° 0 mm 1 mps 724 mmHg 81%
    05:00 +16°C° 0 mm 1 mps 724 mmHg 81%
    06:00 +16°C° 0 mm 1 mps 724 mmHg 81%
    07:00 +18°C° 0 mm 1 mps 724 mmHg 75%
    08:00 +19°C° 0 mm 2 mps 724 mmHg 69%
    09:00 +21°C° 0 mm 2 mps 724 mmHg 63%
    10:00 +23°C° 0 mm 2 mps 724 mmHg 59%
    11:00 +24°C° 0 mm 2 mps 724 mmHg 55%
    12:00 +25°C° 0 mm 2 mps 723 mmHg 51%
    13:00 +26°C° 0 mm 2 mps 723 mmHg 49%
    14:00 +27°C° 0 mm 2 mps 723 mmHg 46%
    15:00 +27°C° 0 mm 2 mps 723 mmHg 44%
    16:00 +26°C° 0 mm 2 mps 723 mmHg 46%
    17:00 +25°C° 0 mm 2 mps 723 mmHg 48%
    18:00 +24°C° 0 mm 2 mps 723 mmHg 51%
    19:00 +24°C° 0 mm 2 mps 724 mmHg 52%
    20:00 +22°C° 0 mm 3 mps 724 mmHg 54%
    21:00 +22°C° 0 mm 3 mps 725 mmHg 55%
    22:00 +21°C° 0 mm 4 mps 724 mmHg 60%
    23:00 +20°C° 0 mm 4 mps 724 mmHg 66%

    26 September, Thursday

    Time Temperature Precipitation Wind Pressure Humidity
    00:00 +19°C° 0 mm 4 mps 724 mmHg 71%
    01:00 +19°C° 0 mm 4 mps 725 mmHg 73%
    02:00 +18°C° 0 mm 3 mps 725 mmHg 74%
    03:00 +18°C° 0 mm 2 mps 725 mmHg 76%
    04:00 +18°C° 0 mm 2 mps 725 mmHg 78%
    05:00 +17°C° 0 mm 2 mps 725 mmHg 80%
    06:00 +18°C° 0 mm 1 mps 725 mmHg 82%
    07:00 +19°C° 0 mm 1 mps 725 mmHg 79%
    08:00 +19°C° 0 mm 2 mps 725 mmHg 76%
    09:00 +20°C° 0 mm 2 mps 725 mmHg 73%
    10:00 +21°C° 0 mm 2 mps 725 mmHg 70%
    11:00 +23°C° 0 mm 2 mps 725 mmHg 67%
    12:00 +23°C° 0 mm 2 mps 724 mmHg 64%
    13:00 +24°C° 0 mm 2 mps 724 mmHg 61%
    14:00 +25°C° 0 mm 2 mps 723 mmHg 57%
    15:00 +26°C° 0 mm 2 mps 723 mmHg 54%
    16:00 +25°C° 0 mm 1 mps 723 mmHg 57%
    17:00 +24°C° 0 mm 1 mps 723 mmHg 60%
    18:00 +21°C° 0 mm 0 mps 723 mmHg 63%
    19:00 +20°C° 0 mm 0 mps 723 mmHg 65%
    20:00 +20°C° 0 mm 0 mps 724 mmHg 67%
    21:00 +19°C° 0 mm 0 mps 724 mmHg 69%
    22:00 +21°C° 0 mm 1 mps 724 mmHg 72%
    23:00 +20°C° 0 mm 1 mps 724 mmHg 76%

    27 September, Friday

    Time Temperature Precipitation Wind Pressure Humidity
    00:00 +19°C° 0 mm 2 mps 724 mmHg 80%
    01:00 +18°C° 0 mm 2 mps 724 mmHg 81%
    02:00 +19°C° 0 mm 1 mps 724 mmHg 82%
    03:00 +19°C° 0 mm 1 mps 724 mmHg 83%
    04:00 +19°C° 0 mm 1 mps 725 mmHg 84%
    05:00 +18°C° 0 mm 1 mps 725 mmHg 85%
    06:00 +18°C° 0 mm 1 mps 725 mmHg 86%
    07:00 +19°C° 0 mm 1 mps 725 mmHg 81%
    08:00 +20°C° 0 mm 2 mps 725 mmHg 76%
    09:00 +21°C° 0 mm 2 mps 725 mmHg 72%
    10:00 +23°C° 0 mm 2 mps 725 mmHg 68%
    11:00 +24°C° 0 mm 3 mps 725 mmHg 64%
    12:00 +25°C° 0 mm 3 mps 725 mmHg 60%
    13:00 +26°C° 0 mm 2 mps 724 mmHg 58%
    14:00 +26°C° 0 mm 2 mps 724 mmHg 56%
    15:00 +27°C° 0 mm 2 mps 723 mmHg 53%
    16:00 +26°C° 0 mm 2 mps 723 mmHg 56%
    17:00 +25°C° 0 mm 1 mps 723 mmHg 59%
    18:00 +24°C° 0 mm 1 mps 723 mmHg 62%
    19:00 +23°C° 0 mm 1 mps 723 mmHg 63%
    20:00 +23°C° 0 mm 2 mps 724 mmHg 64%
    21:00 +21°C° 0 mm 2 mps 724 mmHg 65%
    22:00 +20°C° 0 mm 2 mps 724 mmHg 66%
    23:00 +20°C° 0 mm 3 mps 724 mmHg 67%
    Show more